Location: Cluj-Napoca
(46.7712°N, 23.6236°E)
Time: 10:13:01
(UTC+02:00)

First-Move - Pass Details

Date: 01 December 2021
Orbit: 574 x 664 km, 97.6° (Epoch: 20 January)

Event Time Altitude Azimuth Distance (km) Brightness Sun altitude
Rises 17:29:37 0° 221° (SW) 2,828 ? -8.5°
Reaches altitude 10° 17:33:33 10° 259° (W) 1,959 ? -9.1°
Maximum altitude 17:34:38 11° 274° (W) 1,914 ? -9.3°
Drops below altitude 10° 17:35:43 10° 289° (WNW) 1,977 ? -9.5°
Sets 17:39:47 0° 326° (NNW) 2,919 ? -10.1°
